Location: Unspecified
(54.1780°N, 0.0000°E)
Time: 09:32:17
(UTC+00:00)

Explorer 7 - Visible Passes

Search period start: 14 August 2020 00:00
Search period end: 24 August 2020 00:00
Orbit: 485 x 679 km, 50.3° (Epoch: 13 August)

Date Brightness Start Highest point End Pass type
(mag) Time Alt. Az. Time Alt. Az. Time Alt. Az.
14 Aug 7.0 20:41:33 10° WSW 20:45:22 47° S 20:48:42 12° ESE visible
14 Aug 7.5 22:21:55 10° W 22:24:58 33° SW 22:24:58 33° SW visible
15 Aug 7.0 20:46:15 10° WSW 20:50:04 47° S 20:52:58 15° ESE visible
15 Aug 8.0 22:26:44 10° W 22:29:14 25° SW 22:29:14 25° SW visible
16 Aug 7.1 20:51:00 10° W 20:54:45 44° S 20:57:14 18° ESE visible
16 Aug 8.5 22:31:39 10° W 22:33:31 19° SW 22:33:31 19° SW visible
17 Aug 7.3 20:55:45 10° W 20:59:25 39° SSW 21:01:31 21° SE visible
17 Aug 8.9 22:36:44 10° WSW 22:37:48 14° WSW 22:37:48 14° WSW visible
18 Aug 7.6 21:00:31 10° W 21:04:04 33° SSW 21:05:49 22° SSE visible
19 Aug 8.0 21:05:22 10° W 21:08:40 26° SSW 21:10:09 20° S visible
20 Aug 8.3 21:10:18 10° W 21:13:15 20° SSW 21:14:30 17° S visible
21 Aug 8.7 21:15:27 10° WSW 21:17:45 15° SW 21:18:53 14° SSW visible
22 Aug 9.1 21:21:20 10° SW 21:22:13 11° SW 21:23:06 10° SSW visible
